IRNSS 1G

导读

IRNSS 1G是印度区域导航卫星系统(IRNSS,现称NavIC)的第七颗组网卫星,由印度空间研究组织于2016年4月28日发射。它的成功入轨标志着印度第一代自主区域导航星座完成组网,属于地球同步轨道卫星,为印度及周边区域提供定位服务,后续因性能问题被调整为次要角色,其轨道位置已由新一代导航卫星接替。

基本信息
目录编号:
41469
目录名称:
IRNSS 1G
国际标识:
2016-027A
轨道中心:
EARTH
卫星名称:
IRNSS 1G
卫星全名:
--
卫星状态:
在轨 (已飞行3753 天)
发射日期:
2016-04-28 UTC
国别 :
印度 (IN)
星等 :
--
轨道信息
数据来源 国际轨道数据 AOE轨道数据
星历时间 2026-08-06T22:38:13+0800
1天前
查看轨道信息
2026-08-03T21:00:00+0800
4天前
查看轨道信息
半长轴 42163.383km 42162.682km
偏心率 0.0005229 0.0005156
轨道倾角 5.316° 5.309°
近地点辐角 31.314° 32.083°
升交点赤经 96.312° 96.383°
平近点角 176.490° 148.011°
近地点 35763.198km 35762.805km
远地点 35807.294km 35806.285km
周期 1436.028分钟 1435.992分钟
每日圈数 1.002766 1.002791
详细信息
使用方式:
暂无
2D轨道图
3D轨道图
轨道高度分析图
轨道倾角分析图
轨道综合分析图
查看轨道综合分析图